Surface/Precipitation History
12/21/2014 12:54  to  12/22/2014 12:54
Change End Date:
Date/Time
(MST)
Sf
Temp Chem Water Layer Surface Precipitation
Sf Sub Frz Factor Pct Depth IcePct Cond Salin Type Intens Accum Rate
12/22/2014 12:31 Ice Warning 30.2F 32F 32F 95 0% - 100% 4 mhos 0 None None - -
12/22/2014 12:27 Ice Warning 30.2F 32F 32F 95 0% - 100% 4 mhos 0 None None - -
12/22/2014 12:17 Ice Warning 30.4F 32F 32F 95 0% - 100% 3 mhos 0 None None - -
12/22/2014 12:07 Ice Warning 30.2F 32F 32F 95 0% - 100% 3 mhos 0 Yes - - -
12/22/2014 12:01 Ice Warning 30.2F 32F 32F 95 0% - 100% 4 mhos 0 None None - -
12/22/2014 11:57 Ice Warning 30.2F 32F 32F 95 0% - 100% 4 mhos 0 None None - -
12/22/2014 11:47 Ice Warning 30.0F 32F 32F 95 0% - 100% 3 mhos 0 None None - -
12/22/2014 11:37 Ice Warning 30.0F 32F 32F 95 0% - 100% 3 mhos 0 None None - -
12/22/2014 11:31 Ice Warning 30.0F 32F 32F 95 0% - 100% 3 mhos 0 None None - -
12/22/2014 11:27 Ice Warning 29.8F 32F 32F 95 0% - 100% 3 mhos 0 None None - -
12/22/2014 11:17 Ice Warning 29.7F 32F 32F 95 0% - 100% 3 mhos 0 None None - -
12/22/2014 11:07 Ice Warning 29.3F 32F 32F 95 0% - 100% 3 mhos 0 None None - -
12/22/2014 11:01 Ice Warning 29.3F 32F 32F 95 0% - 100% 2 mhos 0 None None - -
12/22/2014 10:57 Ice Warning 29.3F 32F 32F 95 0% - 100% 2 mhos 0 None None - -
12/22/2014 10:47 Ice Warning 28.8F 32F 32F 95 0% - 100% 2 mhos 0 None None - -
Date/Time
(MST)
Sf
Temp Chem Water Layer Surface Precipitation
Sf Sub Frz Factor Pct Depth IcePct Cond Salin Type Intens Accum Rate
12/22/2014 10:37 Ice Warning 28.6F 32F 32F 95 0% - 100% 1 mhos 0 None None - -
12/22/2014 10:27 Ice Warning 28.2F 32F 32F 95 0% - 100% 1 mhos 0 None None - -
12/22/2014 10:16 Ice Warning 28.2F 32F 32F 95 0% - 100% 1 mhos 0 None None - -
12/22/2014 10:06 Ice Warning 28.0F 32F 32F 95 0% - 100% 0 mhos 0 None None - -
12/22/2014 10:01 Ice Warning 27.9F 32F 32F 95 0% - 100% 0 mhos 0 None None - -
12/22/2014 09:56 Ice Warning 27.7F 32F 32F 95 0% - 100% 0 mhos 0 None None - -
12/22/2014 09:46 Ice Warning 27.0F 32F 32F 90 0% - 100% 0 mhos 0 None None - -
12/22/2014 09:36 Ice Warning 26.8F 32F 32F 85 0% - 100% 0 mhos 0 None None - -
12/22/2014 09:31 Ice Warning 26.8F 32F 32F 80 0% - 100% 0 mhos 0 None None - -
12/22/2014 09:26 Ice Warning 26.8F 32F 32F 80 0% - 100% 0 mhos 0 None None - -
12/22/2014 09:16 Ice Warning 27.0F 32F 32F 75 0% - 100% 0 mhos 0 None None - -
12/22/2014 09:06 Ice Warning 26.8F 32F 32F 65 0% - 100% 0 mhos 0 None None - -
12/22/2014 09:00 Ice Warning 27.0F 32F 32F 65 0% - 100% 0 mhos 0 None None - -
12/22/2014 08:56 Ice Warning 26.8F 32F 32F 70 0% - 100% 0 mhos 0 None None - -
12/22/2014 08:46 Ice Warning 26.8F 32F 32F 65 0% - 100% 0 mhos 0 None None - -
Date/Time
(MST)
Sf
Temp Chem Water Layer Surface Precipitation
Sf Sub Frz Factor Pct Depth IcePct Cond Salin Type Intens Accum Rate
12/22/2014 08:36 Ice Warning 26.8F 32F 32F 65 0% - 100% 0 mhos 0 None None - -
12/22/2014 08:30 Ice Warning 27.0F 32F 32F 65 0% - 100% 0 mhos 0 Yes - - -
12/22/2014 08:26 Ice Warning 26.8F 32F 32F 60 0% - 100% 0 mhos 0 Yes - - -
12/22/2014 08:16 Ice Warning 26.8F 32F 32F 55 0% - 100% 0 mhos 0 None None - -
12/22/2014 08:06 Ice Warning 26.8F 32F 32F 45 0% - 100% 0 mhos 0 Yes - - -
12/22/2014 07:56 Ice Warning 26.8F 32F 32F 35 0% - 100% 0 mhos 0 None None - -
12/22/2014 07:46 Ice Warning 27.0F 32F 32F 30 0% - 100% 0 mhos 0 None None - -
12/22/2014 07:35 Ice Warning 27.1F 32F 32F 30 0% - 100% 0 mhos 0 None None - -
12/22/2014 07:30 Ice Warning 27.5F 32F 32F 15 0% - 100% 0 mhos 0 None None - -
12/22/2014 07:25 Ice Warning 27.5F 32F 32F 15 0% - 100% 0 mhos 0 None None - -
12/22/2014 07:15 Ice Warning 27.9F 32F 32F 15 0% - 100% 0 mhos 0 None None - -
12/22/2014 07:05 Ice Warning 27.9F 32F 32F 15 0% - 100% 0 mhos 0 None None - -
12/22/2014 07:01 Ice Warning 28.0F 32F 32F 15 0% - 100% 0 mhos 0 None None - -
12/22/2014 06:55 Ice Warning 28.0F 32F 32F 15 0% - 100% 0 mhos 0 None None - -
12/22/2014 06:45 Ice Warning 28.2F 32F 32F 15 0% - 100% 0 mhos 0 None None - -
Date/Time
(MST)
Sf
Temp Chem Water Layer Surface Precipitation
Sf Sub Frz Factor Pct Depth IcePct Cond Salin Type Intens Accum Rate
12/22/2014 06:35 Ice Warning 28.4F 32F 32F 20 0% - 100% 0 mhos 0 None None - -
12/22/2014 06:25 Ice Warning 28.8F 32F 32F 20 0% - 100% 0 mhos 0 None None - -
12/22/2014 06:15 Ice Warning 28.9F 32F 32F 20 0% - 100% 0 mhos 0 None None - -
12/22/2014 06:05 Ice Warning 29.1F 32F 32F 25 0% - 100% 0 mhos 0 None None - -
12/22/2014 06:01 Ice Warning 29.3F 32F 32F 25 0% - 100% 0 mhos 0 None None - -
12/22/2014 05:55 Ice Warning 29.8F 32F 32F 25 0% - 100% 0 mhos 0 None None - -
12/22/2014 05:45 Ice Warning 30.2F 32F 32F 60 0% - 100% 1 mhos 0 Yes - - -
12/22/2014 05:35 Ice Warning 30.2F 32F 32F 60 0% - 100% 1 mhos 0 Yes - - -
12/22/2014 05:31 Ice Warning 30.2F 32F 32F 60 0% - 100% 1 mhos 0 Yes - - -
12/22/2014 05:25 Ice Warning 30.2F 32F 32F 60 0% - 100% 1 mhos 0 Yes - - -
12/22/2014 05:15 Ice Warning 30.0F 32F 32F 60 0% - 100% 1 mhos 0 Yes - - -
12/22/2014 05:04 Ice Warning 30.0F 32F 32F 60 0% - 100% 1 mhos 0 Yes - - -
12/22/2014 05:01 Ice Warning 30.0F 32F 32F 60 0% - 100% 1 mhos 0 Yes - - -
12/22/2014 04:54 Ice Warning 30.0F 32F 32F 60 0% - 100% 1 mhos 0 Yes - - -
12/22/2014 04:44 Ice Warning 29.8F 32F 32F 55 0% - 100% 1 mhos 0 Yes - - -
Date/Time
(MST)
Sf
Temp Chem Water Layer Surface Precipitation
Sf Sub Frz Factor Pct Depth IcePct Cond Salin Type Intens Accum Rate
12/22/2014 04:34 Ice Warning 29.8F 32F 32F 55 0% - 100% 1 mhos 0 Yes - - -
12/22/2014 04:31 Ice Warning 29.8F 32F 32F 70 0% - 100% 1 mhos 0 Yes - - -
12/22/2014 04:24 Ice Warning 29.8F 32F 32F 70 0% - 100% 1 mhos 0 Yes - - -
12/22/2014 04:14 Ice Warning 29.8F 32F 32F 75 0% - 100% 1 mhos 0 Yes - - -
12/22/2014 04:04 Ice Warning 29.8F 32F 32F 80 0% - 100% 1 mhos 0 Yes - - -
12/22/2014 04:01 Ice Warning 29.8F 32F 32F 75 0% - 100% 1 mhos 0 Yes - - -
12/22/2014 03:54 Ice Warning 29.7F 32F 32F 75 0% - 100% 1 mhos 0 Yes - - -
12/22/2014 03:44 Ice Warning 29.7F 32F 32F 75 0% - 100% 1 mhos 0 Yes - - -
12/22/2014 03:34 Ice Warning 29.7F 32F 32F 75 0% - 100% 0 mhos 0 Yes - - -
12/22/2014 03:31 Ice Warning 29.7F 32F 32F 70 0% - 100% 0 mhos 0 Yes - - -
12/22/2014 03:24 Ice Warning 29.5F 32F 32F 70 0% - 100% 0 mhos 0 Yes - - -
12/22/2014 03:14 Ice Warning 29.5F 32F 32F 80 0% - 100% 0 mhos 0 Yes - - -
12/22/2014 03:04 Ice Warning 29.3F 32F 32F 80 0% - 100% 0 mhos 0 Yes - - -
12/22/2014 03:01 Ice Warning 29.3F 32F 32F 75 0% - 100% 0 mhos 0 Yes - - -
12/22/2014 02:54 Ice Warning 29.1F 32F 32F 80 0% - 100% 0 mhos 0 Yes - - -
Date/Time
(MST)
Sf
Temp Chem Water Layer Surface Precipitation
Sf Sub Frz Factor Pct Depth IcePct Cond Salin Type Intens Accum Rate
12/22/2014 02:44 Ice Warning 29.1F 32F 32F 80 0% - 100% 0 mhos 0 Yes - - -
12/22/2014 02:34 Ice Warning 29.1F 32F 32F 80 0% - 100% 0 mhos 0 Yes - - -
12/22/2014 02:31 Ice Warning 29.1F 32F 32F 80 0% - 100% 0 mhos 0 Yes - - -
12/22/2014 02:23 Ice Warning 29.1F 32F 32F 80 0% - 100% 0 mhos 0 None None - -
12/22/2014 02:13 Ice Warning 29.1F 32F 32F 75 0% - 100% 0 mhos 0 None None - -
12/22/2014 02:03 Ice Warning 29.1F 32F 32F 75 0% - 100% 0 mhos 0 None None - -
12/22/2014 02:01 Ice Warning 29.1F 32F 32F 75 0% - 100% 0 mhos 0 None None - -
12/22/2014 01:53 Ice Warning 29.1F 32F 32F 75 0% - 100% 0 mhos 0 Yes - - -
12/22/2014 01:43 Ice Warning 29.1F 32F 32F 75 0% - 100% 0 mhos 0 None None - -
12/22/2014 01:33 Ice Warning 29.1F 32F 32F 75 0% - 100% 0 mhos 0 None None - -
12/22/2014 01:31 Ice Warning 29.1F 32F 32F 75 0% - 100% 0 mhos 0 None None - -
12/22/2014 01:23 Ice Warning 29.1F 32F 32F 75 0% - 100% 0 mhos 0 None None - -
12/22/2014 01:13 Ice Warning 29.1F 32F 32F 75 0% - 100% 0 mhos 0 None None - -
12/22/2014 01:03 Ice Warning 28.9F 32F 32F 70 0% - 100% 0 mhos 0 None None - -
12/22/2014 01:01 Ice Warning 28.8F 32F 32F 70 0% - 100% 0 mhos 0 None None - -
Date/Time
(MST)
Sf
Temp Chem Water Layer Surface Precipitation
Sf Sub Frz Factor Pct Depth IcePct Cond Salin Type Intens Accum Rate
12/22/2014 00:53 Ice Warning 28.8F 32F 32F 70 0% - 100% 0 mhos 0 None None - -
12/22/2014 00:43 Ice Warning 28.8F 32F 32F 70 0% - 100% 0 mhos 0 Yes - - -
12/22/2014 00:41 Ice Warning 28.8F 32F 32F 70 0% - 100% 0 mhos 0 None None - -
12/22/2014 00:33 Ice Warning 28.6F 32F 32F 70 0% - 100% 0 mhos 0 None None - -
12/22/2014 00:23 Ice Warning 28.4F 32F 32F 65 0% - 100% 0 mhos 0 None None - -
12/22/2014 00:13 Ice Warning 28.4F 32F 32F 65 0% - 100% 0 mhos 0 None None - -
12/22/2014 00:11 Ice Warning 28.4F 32F 32F 65 0% - 100% 0 mhos 0 None None - -
12/22/2014 00:03 Ice Warning 28.2F 32F 32F 65 0% - 100% 0 mhos 0 None None - -
12/21/2014 23:57 Ice Warning 28.2F 32F 32F 65 0% - 100% 0 mhos 0 None None - -
12/21/2014 23:53 Ice Warning 28.2F 32F 32F 65 0% - 100% 0 mhos 0 None None - -
12/21/2014 23:42 Ice Warning 28.2F 32F 32F 65 0% - 100% 0 mhos 0 None None - -
12/21/2014 23:32 Ice Warning 28.2F 32F 32F 65 0% - 100% 0 mhos 0 None None - -
12/21/2014 23:31 Ice Warning 28.2F 32F 32F 65 0% - 100% 0 mhos 0 None None - -
12/21/2014 23:22 Ice Warning 28.4F 32F 32F 65 0% - 100% 0 mhos 0 None None - -
12/21/2014 23:12 Ice Warning 28.4F 32F 32F 65 0% - 100% 0 mhos 0 None None - -
Date/Time
(MST)
Sf
Temp Chem Water Layer Surface Precipitation
Sf Sub Frz Factor Pct Depth IcePct Cond Salin Type Intens Accum Rate
12/21/2014 23:02 Ice Warning 28.4F 32F 32F 60 0% - 100% 0 mhos 0 None None - -
12/21/2014 23:01 Ice Warning 28.6F 32F 32F 65 0% - 100% 0 mhos 0 None None - -
12/21/2014 22:52 Ice Warning 28.6F 32F 32F 65 0% - 100% 0 mhos 0 None None - -
12/21/2014 22:42 Ice Warning 28.6F 32F 32F 60 0% - 100% 0 mhos 0 None None - -
12/21/2014 22:32 Ice Warning 28.6F 32F 32F 60 0% - 100% 0 mhos 0 None None - -
12/21/2014 22:31 Ice Warning 28.8F 32F 32F 60 0% - 100% 0 mhos 0 None None - -
12/21/2014 22:22 Ice Warning 28.6F 32F 32F 60 0% - 100% 0 mhos 0 None None - -
12/21/2014 22:12 Ice Warning 28.6F 32F 32F 60 0% - 100% 0 mhos 0 None None - -
12/21/2014 22:02 Ice Warning 28.6F 32F 32F 60 0% - 100% 0 mhos 0 None None - -
12/21/2014 22:01 Ice Warning 28.6F 32F 32F 60 0% - 100% 0 mhos 0 None None - -
12/21/2014 21:52 Ice Warning 28.6F 32F 32F 60 0% - 100% 0 mhos 0 None None - -
12/21/2014 21:42 Ice Warning 28.6F 32F 32F 60 0% - 100% 0 mhos 0 None None - -
12/21/2014 21:32 Ice Warning 28.6F 32F 32F 65 0% - 100% 0 mhos 0 None None - -
12/21/2014 21:31 Ice Warning 28.6F 32F 32F 60 0% - 100% 0 mhos 0 None None - -
12/21/2014 21:22 Ice Warning 28.6F 32F 32F 65 0% - 100% 0 mhos 0 None None - -
Date/Time
(MST)
Sf
Temp Chem Water Layer Surface Precipitation
Sf Sub Frz Factor Pct Depth IcePct Cond Salin Type Intens Accum Rate
12/21/2014 21:12 Ice Warning 28.8F 32F 32F 65 0% - 100% 0 mhos 0 None None - -
12/21/2014 21:01 Ice Warning 28.6F 32F 32F 65 0% - 100% 0 mhos 0 None None - -
12/21/2014 21:01 Ice Warning 28.6F 32F 32F 65 0% - 100% 0 mhos 0 None None - -
12/21/2014 20:51 Ice Warning 28.6F 32F 32F 65 0% - 100% 0 mhos 0 None None - -
12/21/2014 20:41 Ice Warning 28.0F 32F 32F 65 0% - 100% 0 mhos 0 None None - -
12/21/2014 20:31 Ice Warning 28.0F 32F 32F 65 0% - 100% 0 mhos 0 None None - -
12/21/2014 20:30 Ice Warning 28.0F 32F 32F 65 0% - 100% 0 mhos 0 None None - -
12/21/2014 20:21 Ice Warning 28.0F 32F 32F 65 0% - 100% 0 mhos 0 None None - -
12/21/2014 20:11 Ice Warning 27.9F 32F 32F 65 0% - 100% 0 mhos 0 None None - -
12/21/2014 20:01 Ice Warning 27.9F 32F 32F 70 0% - 100% 0 mhos 0 None None - -
12/21/2014 20:01 Ice Warning 27.9F 32F 32F 70 0% - 100% 0 mhos 0 None None - -
12/21/2014 19:51 Ice Warning 28.0F 32F 32F 70 0% - 100% 0 mhos 0 None None - -
12/21/2014 19:41 Ice Warning 28.4F 32F 32F 75 0% - 100% 0 mhos 0 None None - -
12/21/2014 19:31 Ice Warning 28.8F 32F 32F 80 0% - 100% 0 mhos 0 None None - -
12/21/2014 19:30 Ice Warning 28.8F 32F 32F 80 0% - 100% 0 mhos 0 None None - -
Date/Time
(MST)
Sf
Temp Chem Water Layer Surface Precipitation
Sf Sub Frz Factor Pct Depth IcePct Cond Salin Type Intens Accum Rate
12/21/2014 19:21 Ice Warning 29.1F 32F 32F 80 0% - 100% 0 mhos 0 None None - -
12/21/2014 19:11 Ice Warning 29.7F 32F 32F 85 0% - 100% 0 mhos 0 None None - -
12/21/2014 19:01 Ice Warning 30.4F 32F 32F 90 0% - 100% 0 mhos 0 None None - -
12/21/2014 18:51 Ice Warning 30.9F 32F 32F 90 0% - 100% 0 mhos 0 None None - -
12/21/2014 18:41 Ice Warning 31.5F 32F 32F 95 0% - 100% 0 mhos 0 Yes - - -
12/21/2014 18:31 Ice Warning 31.6F 32F 32F 95 0% - 100% 0 mhos 0 Yes - - -
12/21/2014 18:30 Ice Warning 31.6F 32F 32F 95 0% - 100% 0 mhos 0 Yes - - -
12/21/2014 18:20 Ice Warning 31.6F 32F 32F 95 0% - 100% 0 mhos 0 Yes - - -
12/21/2014 18:10 Ice Warning 31.8F 32F 32F 95 0% - 100% 0 mhos 0 Yes - - -
12/21/2014 18:01 Ice Warning 31.8F 32F 32F 95 0% - 100% 0 mhos 0 Yes - - -
12/21/2014 18:00 Ice Warning 31.8F 32F 32F 95 0% - 100% 0 mhos 0 Yes - - -
12/21/2014 17:50 Ice Warning 31.8F 32F 32F 95 0% - 100% 0 mhos 0 Yes - - -
12/21/2014 17:40 Ice Warning 31.8F 32F 32F 60 0% - 100% 0 mhos 0 Yes - - -
12/21/2014 17:31 Ice Warning 31.8F 32F 32F 20 0% - 100% 1 mhos 0 Yes - - -
12/21/2014 17:30 Ice Warning 31.8F 32F 32F 20 0% - 100% 1 mhos 0 Yes - - -
Date/Time
(MST)
Sf
Temp Chem Water Layer Surface Precipitation
Sf Sub Frz Factor Pct Depth IcePct Cond Salin Type Intens Accum Rate
12/21/2014 17:20 Ice Warning 31.8F 32F 32F 55 0% - 100% 1 mhos 0 Yes - - -
12/21/2014 17:10 Ice Warning 31.8F 32F 32F 20 0% - 100% 1 mhos 0 Yes - - -
12/21/2014 17:01 Ice Warning 32.0F 32F 32F 25 0% - 100% 2 mhos 0 Yes - - -
12/21/2014 17:00 Ice Warning 32.0F 32F 32F 25 0% - 100% 2 mhos 0 Yes - - -
12/21/2014 16:50 Ice Warning 32.0F 32F 32F 35 0% - 100% 3 mhos 0 Yes - - -
12/21/2014 16:40 Wet 32.4F 32F 32F 10 0% 0.00 in 0% 4 mhos 0 Yes - - -
12/21/2014 16:31 Wet 32.5F 32F 32F 10 0% 0.00 in 0% 0 mhos 0 None None - -
12/21/2014 16:30 Wet 32.9F 32F 32F 20 0% 0.00 in 0% 0 mhos 0 None None - -
12/21/2014 16:20 Wet 32.9F 32F 32F 15 0% 0.00 in 0% 0 mhos 0 Yes - - -
12/21/2014 16:10 Wet 33.3F 32F 32F 20 0% 0.00 in 0% 0 mhos 0 Yes - - -
12/21/2014 16:01 Wet 33.4F 32F 32F 10 0% 0.00 in 0% 0 mhos 0 Yes - - -
12/21/2014 16:00 Wet 33.3F 32F 32F 25 0% 0.00 in 0% 0 mhos 0 Yes - - -
12/21/2014 15:50 Wet 33.3F 32F 32F 10 0% 0.00 in 0% 0 mhos 0 Yes - - -
12/21/2014 15:40 Wet 33.6F 32F 32F 10 0% 0.00 in 0% 0 mhos 0 Yes - - -
12/21/2014 15:31 Wet 33.6F 32F 32F 15 0% 0.00 in 0% 0 mhos 0 Yes - - -
Date/Time
(MST)
Sf
Temp Chem Water Layer Surface Precipitation
Sf Sub Frz Factor Pct Depth IcePct Cond Salin Type Intens Accum Rate
12/21/2014 15:29 Wet 33.6F 32F 32F 10 0% 0.00 in 0% 0 mhos 0 Yes - - -
12/21/2014 15:19 Wet 33.8F 32F 32F 90 0% 0.00 in 0% 0 mhos 0 None None - -
12/21/2014 15:09 Wet 33.1F 32F 32F 85 0% 0.00 in 0% 0 mhos 0 Yes - - -
12/21/2014 15:01 Wet 32.5F 32F 32F 95 0% 0.00 in 0% 1 mhos 0 Yes - - -
12/21/2014 14:59 Wet 32.7F 32F 32F 90 0% 0.00 in 0% 1 mhos 0 Yes - - -
12/21/2014 14:49 Wet 33.6F 32F 32F 35 0% 0.00 in 0% 1 mhos 0 Yes - - -
12/21/2014 14:39 Wet 33.8F 32F 32F 70 0% 0.00 in 0% 1 mhos 0 Yes - - -
12/21/2014 14:31 Wet 34.5F 32F 32F 70 0% 0.00 in 0% 1 mhos 0 Yes - - -
12/21/2014 14:29 Wet 34.7F 32F 32F 65 0% 0.00 in 0% 1 mhos 0 Yes - - -
12/21/2014 14:19 Wet 34.9F 32F 32F 20 0% 0.00 in 0% 1 mhos 0 Yes - - -
12/21/2014 14:09 Wet 34.9F 32F 32F 30 0% 0.00 in 0% 1 mhos 0 Yes - - -
12/21/2014 14:00 Wet 35.8F 32F 32F 10 0% 0.00 in 0% 1 mhos 0 None None - -
12/21/2014 13:59 Wet 35.8F 32F 32F 10 0% 0.00 in 0% 1 mhos 0 None None - -
12/21/2014 13:49 Wet 36.1F 32F 32F 20 0% 0.00 in 0% 1 mhos 0 None None - -
12/21/2014 13:39 Wet 36.9F 32F 32F 25 0% 0.00 in 0% 1 mhos 0 None None - -
Date/Time
(MST)
Sf
Temp Chem Water Layer Surface Precipitation
Sf Sub Frz Factor Pct Depth IcePct Cond Salin Type Intens Accum Rate
12/21/2014 13:29 Wet 37.2F 32F 32F 75 0% 0.00 in 0% 1 mhos 0 None None - -
12/21/2014 13:29 Wet 37.2F 32F 32F 75 0% 0.00 in 0% 1 mhos 0 None None - -
12/21/2014 13:19 Wet 37.9F 32F 32F 40 0% 0.00 in 0% 1 mhos 0 Yes - - -
12/21/2014 13:09 Wet 38.3F 32F 32F 45 0% 0.00 in 0% 1 mhos 0 None None - -
12/21/2014 13:01 Wet 38.7F 32F 32F 45 0% 0.00 in 0% 1 mhos 0 None None - -
12/21/2014 12:59 Wet 38.7F 32F 32F 50 0% 0.00 in 0% 1 mhos 0 None None - -
Change End Date:
Copyright © 1998-2005 Surface Systems, Inc.
All Rights Reserved
Send comments about the data to:
SCAN Web ® is a registered trademark of Surface Systems, Inc.
SCAN Web Version 5.6